GEFSCGP_850_meantemp_324.txt.gz
Temperature
27 27 27 28 29 30 30 30 30 30 31 31 30 29 29 29 29 29 28 27 26 25 24 23 23 22 21 21 20 19 19 18 18 18 18 18 17 17 17 17 17 17 17 17
28 27 29 30 30 30 30 29 30 30 31 30 29 29 29 29 29 28 28 27 26 25 24 23 23 22 21 20 20 19 19 18 18 18 18 18 17 17 17 17 17 17 16 16
28 29 30 30 30 29 29 29 29 30 31 30 29 28 28 29 29 28 28 27 26 25 24 23 23 22 21 20 19 19 18 18 18 18 17 17 17 17 17 17 17 16 16 16
29 30 30 30 29 29 29 30 30 30 29 29 29 27 27 28 28 28 27 26 26 25 24 23 22 22 21 20 19 19 18 18 18 17 17 17 17 17 17 16 16 16 16 16
28 30 30 29 30 30 29 31 30 30 29 28 29 28 27 28 27 27 27 26 25 25 24 24 23 22 21 20 19 19 18 18 17 17 17 17 17 16 16 16 16 16 16 16
29 30 30 30 30 30 30 30 29 29 28 26 28 28 27 27 27 27 26 26 25 24 24 23 23 22 21 20 19 18 18 18 17 17 17 17 16 16 16 16 16 16 16 16
28 29 30 30 29 29 29 28 26 26 26 26 28 28 27 28 28 27 26 25 24 24 23 23 22 21 21 20 19 18 18 17 17 17 16 16 16 16 16 16 16 16 15 15
26 27 28 29 29 28 28 28 26 25 26 27 27 26 27 28 27 26 25 24 24 23 23 22 22 21 20 19 19 18 18 17 17 16 16 16 16 16 16 16 15 15 15 15
26 26 29 29 29 29 27 28 28 27 27 26 27 26 26 26 26 25 24 24 23 23 22 21 21 21 20 19 18 18 18 17 17 16 16 16 16 15 15 15 15 15 15 15
26 25 27 28 29 28 28 28 27 26 25 25 26 26 25 25 24 24 24 23 22 22 21 20 20 20 19 18 18 18 17 17 17 16 16 16 15 15 15 15 15 15 15 14
26 25 26 27 27 27 27 27 26 26 26 25 24 24 25 24 24 23 23 22 22 21 20 20 19 19 18 18 17 17 17 17 16 16 16 15 15 15 15 15 14 14 14 14
25 25 24 26 28 28 28 27 26 25 25 25 24 23 25 24 24 23 22 22 21 20 20 19 18 18 17 17 17 17 17 16 16 16 15 15 15 15 15 14 14 14 14 14
24 23 23 24 26 26 26 27 27 26 25 24 24 23 24 23 23 22 21 21 20 19 19 18 18 17 17 16 16 16 16 16 16 16 15 15 15 15 14 14 14 14 14 14
23 23 22 22 24 25 25 25 26 25 24 24 24 23 22 22 22 22 21 20 20 19 18 17 17 16 16 16 15 15 16 15 15 15 15 15 14 15 14 14 14 14 14 14
23 23 23 23 24 25 24 24 25 25 24 24 24 23 22 22 22 21 20 19 19 18 17 17 16 16 15 15 15 15 15 15 15 15 15 14 14 14 14 14 14 14 13 13
22 21 22 22 23 24 24 24 25 24 24 24 23 22 22 22 21 20 19 19 18 18 17 17 16 15 15 15 14 14 14 14 14 14 14 14 14 14 14 14 14 14 13 13
22 21 21 21 23 23 23 23 24 23 23 23 22 21 21 21 21 20 19 18 18 17 17 16 15 15 14 14 14 14 14 14 14 14 14 14 14 14 14 14 14 13 13 13
21 20 20 20 21 21 22 24 24 23 22 22 22 21 21 20 20 19 19 18 17 17 16 16 15 14 14 14 14 14 14 14 14 14 14 14 14 14 14 14 14 13 13 13
21 20 20 20 20 20 21 22 22 21 21 21 21 21 20 19 19 19 18 17 17 16 16 15 15 14 14 14 13 13 13 13 13 14 13 14 14 14 13 13 13 13 13 13
22 21 20 20 19 19 20 21 22 21 20 20 20 20 19 19 19 19 18 17 16 15 15 15 14 14 14 13 13 13 13 13 13 13 13 13 13 13 13 13 13 13 13 13
20 19 19 19 18 18 19 20 21 19 18 19 19 19 19 18 18 17 17 16 16 15 14 14 14 13 13 13 13 13 13 13 13 13 13 13 13 13 13 13 13 13 13 13
19 19 18 18 18 17 19 19 19 18 18 18 18 18 18 17 17 16 16 15 15 15 14 14 13 13 13 13 12 12 12 12 12 12 12 12 13 13 13 13 13 13 13 13
19 18 18 17 17 17 17 17 17 17 17 17 17 17 17 16 16 15 15 15 14 14 13 13 13 13 12 12 12 12 12 12 12 12 12 12 12 12 13 13 13 13 13 13
18 19 18 17 17 17 17 17 16 17 17 17 17 17 16 16 16 15 14 14 14 13 13 13 13 12 12 12 12 12 12 12 12 12 12 12 12 12 12 13 13 13 13 13
17 17 17 17 17 17 16 16 16 16 16 16 16 16 16 15 15 14 14 13 13 13 13 12 12 12 12 12 12 12 12 12 11 12 12 12 12 12 12 12 12 12 12 12
16 16 16 16 16 16 16 16 16 16 16 16 16 16 15 15 14 14 13 13 12 12 12 12 12 12 12 12 12 12 12 12 12 12 12 12 12 12 12 12 12 12 12 12

GEFSCGP_850_meantemp_330.txt.gz
Temperature
23 20 19 20 21 21 22 23 23 24 25 24 23 23 23 24 24 23 23 23 23 23 23 23 22 22 21 21 20 20 20 19 19 19 18 18 18 17 17 17 17 17 17 17
21 20 21 22 23 23 23 23 23 24 25 25 23 23 23 23 23 23 23 22 22 23 22 22 22 22 21 21 20 20 20 19 19 19 18 18 18 17 17 17 17 17 16 16
20 21 23 24 23 23 23 23 23 23 24 24 23 22 22 22 23 23 23 22 22 22 22 22 21 21 21 21 20 20 20 19 19 19 18 18 17 17 17 17 16 16 16 16
21 22 24 24 24 24 23 24 24 24 22 21 22 20 21 21 21 21 21 21 21 21 21 21 21 21 21 21 20 20 20 19 19 18 18 18 17 17 17 17 16 16 16 16
21 23 23 23 24 25 23 25 24 24 22 21 21 20 19 20 20 20 20 21 21 21 21 21 21 21 20 20 20 20 19 19 19 18 18 18 17 17 16 16 16 16 16 16
22 23 23 24 25 25 25 24 23 20 19 20 21 20 19 19 20 20 20 20 20 20 20 20 20 20 20 20 19 19 19 18 18 18 18 17 17 17 16 16 16 16 16 15
22 23 24 25 24 24 23 20 19 19 18 19 20 20 19 20 20 20 19 19 19 19 20 19 19 19 19 19 19 19 18 18 18 18 17 17 17 16 16 16 16 16 16 15
20 21 23 24 23 22 22 20 19 19 19 19 20 20 19 20 20 20 20 19 19 19 19 19 19 19 18 18 18 18 18 18 17 17 17 16 16 16 16 16 16 15 15 15
19 20 23 24 24 23 23 20 19 18 19 19 18 19 19 20 19 19 19 18 18 18 18 18 18 18 18 18 17 18 18 17 17 16 16 16 16 16 16 15 15 15 15 15
20 20 22 23 24 23 22 21 18 18 19 18 19 18 18 18 18 18 17 17 17 18 18 18 18 17 17 17 17 17 17 17 16 16 16 16 15 15 15 15 15 15 15 14
19 19 20 21 22 22 22 21 19 17 17 18 18 18 19 18 18 17 17 17 17 17 17 17 17 17 17 17 17 17 17 16 16 16 15 15 15 15 15 15 15 15 14 14
19 17 18 20 21 22 21 20 18 18 18 17 17 17 19 18 18 18 17 17 17 17 16 16 16 16 16 16 16 16 16 16 16 15 15 15 15 15 14 14 14 14 14 14
19 16 17 18 19 20 21 20 19 17 16 16 17 17 18 17 17 17 17 17 16 16 16 16 16 16 16 16 16 15 15 15 15 15 15 15 15 15 14 14 14 14 14 14
19 16 16 17 18 19 20 20 19 17 16 17 17 17 17 16 16 16 16 16 16 16 16 16 16 15 15 15 15 15 15 15 15 15 15 14 14 14 14 14 14 14 14 13
17 16 17 18 19 19 19 19 19 18 17 17 17 17 16 16 16 16 16 16 15 15 15 15 15 15 15 15 15 15 15 14 14 14 14 14 14 14 14 14 14 14 13 13
15 16 17 17 19 19 18 19 19 19 18 18 17 17 16 17 17 16 15 15 15 15 15 15 15 15 15 15 15 14 14 14 14 14 14 14 14 14 14 13 13 13 13 13
14 15 15 15 17 18 17 17 18 17 17 17 16 16 16 16 16 15 15 15 15 15 15 15 15 15 15 15 14 14 14 14 14 13 13 13 13 13 13 13 13 13 13 13
14 14 13 14 16 16 16 17 18 17 17 16 16 16 16 16 16 16 16 16 15 15 15 15 15 15 15 14 14 14 14 13 13 13 13 13 13 13 13 13 13 13 13 13
14 14 13 13 14 15 16 17 16 16 15 16 15 15 15 16 16 15 16 16 16 16 16 15 15 15 14 14 14 14 13 13 13 13 13 13 13 13 13 13 13 13 13 13
14 13 13 13 14 14 15 16 17 16 14 15 15 15 15 15 14 14 16 16 16 16 15 15 15 14 14 14 13 13 13 13 13 13 13 13 13 13 13 13 13 13 12 13
13 13 13 13 13 13 14 16 16 15 14 15 15 15 15 14 14 15 16 15 15 15 15 15 15 14 14 14 13 13 13 13 13 13 12 12 12 12 13 12 12 12 12 12
12 12 12 12 12 13 14 15 14 13 14 15 15 15 15 15 15 15 15 15 15 15 14 14 14 14 14 13 13 13 13 13 12 12 12 12 12 12 12 12 12 12 12 12
12 12 11 11 12 13 14 14 14 14 14 14 15 15 15 15 15 15 15 14 14 14 14 14 14 13 13 13 13 13 12 12 12 12 12 12 12 12 12 12 12 12 12 12
12 12 11 11 12 13 14 14 14 14 14 14 15 15 15 15 14 14 14 14 13 13 13 13 13 13 13 13 12 12 12 12 12 12 12 12 12 12 12 12 12 12 12 12
12 11 11 11 12 12 14 14 14 14 14 14 14 14 15 15 14 14 13 13 13 13 13 13 13 12 12 12 12 12 12 12 12 12 12 12 12 12 12 12 12 12 12 12
11 11 11 10 12 11 13 14 14 14 14 14 14 14 14 14 14 13 13 13 12 12 12 12 12 12 12 12 12 12 12 12 12 12 12 11 11 11 11 11 12 12 11 11

GEFSCGP_850_meantemp_336.txt.gz
Temperature
19 17 17 18 18 20 20 20 20 20 21 21 20 20 20 20 19 19 19 19 19 20 21 21 21 21 21 20 20 19 19 19 18 18 18 18 18 17 17 17 17 16 16 16
18 18 19 19 19 20 20 20 20 20 21 21 20 19 19 19 19 19 19 19 20 20 20 20 20 20 20 20 20 20 19 19 18 18 18 18 17 17 17 17 16 16 16 16
19 19 20 20 20 20 20 19 20 20 20 20 20 19 19 19 19 19 19 19 19 19 20 20 20 20 20 20 19 19 19 19 18 18 17 17 17 17 17 16 16 16 16 16
19 19 20 20 20 20 19 20 20 20 19 18 20 18 19 18 18 18 18 18 19 19 19 20 19 19 19 19 19 19 18 18 18 18 17 17 17 17 17 17 16 16 16 16
19 20 20 20 21 20 20 21 20 20 19 18 18 18 18 17 18 18 18 18 18 19 19 19 19 19 19 19 19 18 18 18 18 17 17 17 17 17 17 16 16 16 16 16
19 20 20 21 21 21 20 20 18 16 16 18 18 18 18 17 18 18 18 18 18 18 18 18 19 19 19 18 18 18 18 17 17 17 17 16 16 16 16 16 16 15 15 15
19 20 20 21 21 21 20 18 17 18 16 17 17 18 17 18 17 17 17 17 17 17 17 18 18 18 18 18 18 17 17 17 17 17 16 16 16 16 16 16 15 15 15 15
18 18 20 20 20 19 18 18 17 18 17 17 17 17 17 18 18 18 17 17 17 17 17 17 18 17 18 17 17 17 17 17 17 16 16 16 16 16 16 15 15 15 15 15
17 18 20 20 20 19 18 17 17 16 16 17 16 17 17 17 17 16 16 16 16 16 17 17 17 17 17 17 17 17 16 16 16 16 16 15 15 15 15 15 15 15 15 14
17 18 19 20 20 19 18 16 15 16 16 17 17 17 17 17 17 16 15 15 16 16 16 16 16 16 16 16 16 16 16 16 16 16 15 15 15 15 15 15 15 15 15 14
17 17 18 19 19 19 18 17 15 14 15 16 16 17 17 16 16 15 15 16 16 16 16 16 16 16 16 16 16 16 16 15 15 15 15 15 15 15 15 15 14 14 14 14
16 15 16 17 18 18 18 16 15 16 16 14 15 16 17 16 15 15 15 15 15 16 16 16 16 16 16 16 15 15 15 15 15 15 15 14 14 14 14 14 14 14 14 14
16 15 16 17 17 17 17 16 15 14 13 13 15 17 16 15 15 15 15 15 15 15 15 15 15 15 15 15 15 15 15 15 15 14 14 14 14 14 14 14 14 14 14 14
15 14 15 16 16 16 17 16 15 14 14 14 15 16 16 15 14 14 14 15 15 15 15 15 15 15 15 15 15 15 15 14 14 14 14 14 14 14 13 14 13 13 13 13
15 14 15 15 16 17 17 16 16 15 15 15 15 15 15 15 14 14 14 14 14 14 14 14 15 15 15 15 15 14 14 14 14 14 14 14 14 13 13 13 13 13 13 13
13 14 15 15 16 16 16 16 16 16 15 15 15 15 14 14 14 14 14 14 14 14 14 14 14 15 14 15 14 14 14 14 14 14 14 13 13 13 13 13 13 13 13 13
12 13 14 14 15 16 15 15 15 15 15 15 15 15 14 13 13 14 14 14 14 14 14 15 15 14 14 14 14 14 14 14 14 13 13 13 13 13 13 13 13 13 13 13
11 11 11 12 14 15 14 14 15 15 14 14 14 14 13 13 14 15 15 15 14 14 15 15 15 14 14 14 14 14 14 14 13 13 13 13 13 13 13 13 13 13 12 12
11 11 11 11 13 14 14 14 14 14 14 13 13 13 13 13 13 14 15 15 15 15 15 15 15 15 14 14 14 14 14 13 13 13 13 13 13 12 12 12 12 12 12 12
11 10 11 11 13 13 14 14 14 14 14 13 13 12 12 12 12 13 15 14 14 14 15 15 14 14 14 14 14 13 13 13 13 13 13 13 12 12 12 12 12 12 12 12
11 10 10 11 12 12 13 13 14 14 13 13 13 13 12 12 13 14 15 14 14 14 14 14 14 14 14 13 13 13 13 13 13 13 12 12 12 12 12 12 12 12 12 12
10 10 10 10 11 12 12 12 12 12 13 13 13 13 13 13 14 14 14 14 14 14 14 14 14 14 13 13 13 13 13 13 12 12 12 12 12 12 12 12 12 11 11 11
9 9 9 10 10 11 11 12 12 13 12 13 13 13 13 13 13 14 14 14 14 14 13 13 13 13 13 13 12 12 12 12 12 12 12 12 12 12 12 11 11 11 11 11
10 9 9 9 10 11 12 12 13 13 13 13 13 13 13 13 13 13 13 13 13 13 13 13 12 12 12 12 12 12 12 12 12 12 12 12 11 11 11 11 11 11 11 11
9 9 9 9 10 11 12 12 12 13 13 13 13 13 13 13 13 13 13 13 13 13 13 12 12 12 12 12 12 12 12 12 12 12 11 11 11 11 11 11 11 11 11 11
8 9 9 9 10 10 11 12 12 12 12 12 12 12 13 13 13 13 13 13 12 12 12 12 12 12 12 11 11 11 11 11 11 11 11 11 11 11 11 11 11 11 11 11

GEFSCGP_850_meantemp_342.txt.gz
Temperature
25 26 27 27 28 28 28 28 27 28 28 28 28 27 27 27 26 26 26 25 24 23 22 21 20 20 19 19 19 19 19 18 18 18 17 17 17 17 17 17 17 16 16 16
25 26 27 28 27 27 27 27 27 27 27 27 27 27 27 27 26 25 25 24 24 23 22 21 20 19 19 19 19 18 18 18 18 18 18 17 17 17 17 17 17 17 16 16
26 27 27 26 26 26 27 27 27 27 27 27 27 27 27 27 26 25 24 24 24 23 22 21 20 19 19 18 18 18 18 18 18 18 17 17 17 17 16 16 16 16 16 16
26 27 26 26 26 26 26 27 27 27 26 27 27 27 28 27 26 26 25 24 23 23 22 21 20 19 19 18 18 18 18 18 18 17 17 17 17 17 16 16 16 16 16 16
26 26 26 26 27 27 27 27 27 27 27 27 27 27 28 27 26 26 25 24 23 22 21 21 20 19 19 18 18 18 18 18 17 17 17 17 17 16 16 16 16 16 16 16
26 27 26 27 27 27 27 26 26 27 27 26 27 27 27 28 27 26 25 24 22 21 21 20 19 19 18 18 17 17 17 17 17 17 17 16 16 16 16 16 16 15 15 15
25 26 26 26 26 26 26 26 25 25 26 26 27 26 27 27 26 26 25 23 22 21 20 20 19 18 18 18 17 17 17 17 17 16 16 16 16 16 16 15 15 15 15 15
25 25 26 26 26 26 26 26 25 25 26 27 26 26 27 26 25 24 23 22 21 21 20 19 18 18 18 17 17 17 16 16 16 16 16 16 16 15 15 15 15 15 15 15
25 25 26 26 26 26 26 26 27 26 26 26 26 26 25 25 24 24 23 22 22 21 20 19 18 18 17 17 16 16 16 16 16 16 16 15 15 15 15 15 15 14 14 14
25 24 25 25 25 26 26 27 26 26 24 25 26 26 26 24 24 24 23 22 21 20 19 19 18 17 17 17 16 16 16 15 15 15 15 15 15 15 15 15 14 14 14 14
25 24 24 25 25 25 25 25 25 26 26 25 25 26 26 25 24 24 23 22 21 20 19 18 17 17 17 16 16 16 15 15 15 15 15 15 15 15 14 14 14 14 14 14
24 24 24 24 25 25 25 26 25 24 24 25 25 25 25 25 24 23 23 21 20 19 19 18 17 17 16 16 16 16 15 15 15 15 15 15 14 14 14 14 14 14 14 14
23 22 22 23 24 24 24 25 25 25 25 25 25 24 23 23 23 22 21 20 19 19 18 18 17 16 16 16 16 15 15 15 15 15 15 15 14 14 14 14 14 13 13 13
22 22 23 23 23 24 23 24 24 25 24 24 25 24 23 23 22 21 20 19 19 18 17 17 16 16 16 15 15 15 15 15 15 14 14 14 14 14 14 13 13 13 13 13
22 22 22 23 23 23 23 23 24 24 24 24 24 24 24 23 22 21 20 19 18 18 17 16 16 16 15 15 15 15 14 14 14 14 14 14 14 14 13 13 13 13 13 13
21 21 21 21 22 23 22 23 23 23 23 23 23 23 23 22 21 20 19 19 18 17 17 16 15 15 15 15 15 14 14 14 14 14 14 14 14 13 13 13 13 13 13 13
21 20 20 21 22 22 21 22 22 22 22 22 22 23 22 21 21 20 19 18 18 17 16 16 15 15 14 14 14 14 14 14 14 13 13 13 13 13 13 13 13 13 13 12
20 20 20 21 20 20 21 21 21 21 21 22 22 22 21 20 19 19 18 18 17 16 16 15 15 14 14 14 14 13 13 13 13 13 13 13 13 13 13 13 13 13 12 12
20 19 20 20 20 20 20 20 20 20 20 20 20 20 20 19 18 18 17 16 16 15 15 14 14 14 14 13 13 13 13 13 13 13 13 13 13 13 13 12 12 12 12 12
19 19 20 19 19 19 20 20 19 20 19 19 19 19 18 18 19 19 16 15 15 15 14 14 14 13 13 13 13 13 13 13 13 13 13 13 13 13 12 12 12 12 12 12
19 19 19 19 19 19 19 18 18 18 18 18 18 17 17 17 17 16 15 15 14 14 14 14 13 13 13 13 13 13 13 13 13 13 13 12 12 12 12 12 12 12 12 11
19 19 18 19 18 18 18 18 18 17 16 16 16 16 16 16 15 15 15 14 14 13 13 13 13 13 13 12 12 12 12 12 12 12 12 12 12 12 12 12 12 11 11 11
18 18 18 18 17 17 16 16 16 15 15 15 15 15 15 15 15 14 14 14 13 13 13 13 13 12 12 12 12 12 12 12 12 12 12 11 11 11 11 11 11 11 12 12
17 16 17 16 16 16 15 15 15 14 15 14 14 14 14 14 14 14 14 13 13 12 12 12 12 12 12 12 12 12 11 11 11 11 11 11 11 11 11 11 11 12 12 12
16 16 16 16 16 15 15 15 14 14 14 14 14 14 14 14 14 13 13 13 12 12 12 12 12 12 12 12 11 11 11 11 11 11 11 11 11 11 11 11 11 11 11 12
16 16 16 16 16 16 15 14 13 13 13 13 13 13 13 13 13 13 12 12 12 12 11 11 11 11 11 11 11 11 11 11 11 11 11 11 11 11 11 11 11 11 11 11

GEFSCGP_850_meantemp_348.txt.gz
Temperature
27 28 28 29 30 30 30 29 29 30 32 31 31 30 30 31 30 30 29 29 28 27 25 24 23 22 21 21 21 20 20 19 19 19 19 18 18 18 18 18 18 17 17 17
28 28 29 30 31 30 30 29 29 30 31 31 30 30 31 31 31 30 29 29 28 27 25 24 23 22 21 21 20 20 20 19 19 19 19 18 18 18 18 18 17 17 17 17
28 29 30 30 30 29 29 29 29 29 31 31 30 29 30 30 30 29 29 28 28 27 25 24 23 22 21 20 20 20 19 19 19 19 18 18 18 18 17 17 17 17 17 17
28 30 30 30 29 29 29 30 30 29 29 29 29 28 29 30 29 29 29 28 28 27 25 24 23 22 21 20 20 19 19 19 19 18 18 18 17 17 17 17 17 17 17 17
28 29 29 29 29 30 29 30 30 29 29 28 29 28 28 29 28 28 28 28 27 27 26 25 23 22 21 21 20 19 19 19 18 18 18 17 17 17 17 17 17 17 17 17
29 30 30 30 30 30 30 30 29 29 28 27 28 28 27 28 27 28 28 27 27 26 25 25 23 22 21 21 20 19 18 18 18 18 17 17 17 17 17 17 17 17 16 16
28 29 30 30 29 29 29 27 26 26 26 27 28 28 27 28 28 28 28 27 26 26 25 24 23 22 21 20 19 19 18 18 17 17 17 17 17 17 17 16 16 16 16 16
27 27 29 30 29 28 28 27 26 25 26 27 28 27 28 28 28 27 27 27 26 25 24 24 22 22 21 20 19 19 18 18 17 17 17 17 16 16 16 16 16 16 16 16
27 27 30 30 30 29 27 27 28 27 26 26 26 27 27 28 28 27 27 26 25 25 24 23 22 21 20 20 19 18 18 17 17 17 17 17 16 16 16 16 16 15 15 15
27 27 28 30 29 29 29 28 27 26 25 25 26 26 26 26 26 26 26 25 24 24 23 22 21 20 20 19 19 18 18 17 17 17 17 16 16 16 16 15 15 15 15 15
27 26 27 28 28 28 28 27 27 27 26 25 25 25 27 26 26 26 26 25 24 23 22 22 21 20 19 19 18 18 17 17 17 17 16 16 16 16 15 15 15 15 15 15
27 26 26 27 28 29 28 28 27 25 25 26 25 25 27 26 26 26 26 25 24 23 22 21 20 20 19 18 18 17 17 17 17 16 16 16 16 16 15 15 15 15 15 15
26 25 24 25 26 27 27 27 27 27 26 25 25 25 26 26 26 25 25 24 23 22 21 21 20 19 19 18 18 17 17 17 16 16 16 16 15 15 15 15 15 14 14 14
25 24 24 23 24 25 25 26 27 26 25 25 25 25 25 25 25 24 23 23 22 22 21 20 19 19 18 18 17 17 17 17 16 16 16 15 15 15 15 15 15 14 14 14
25 24 24 24 25 25 25 26 26 26 26 25 25 25 24 24 24 24 23 23 22 21 20 19 19 18 18 17 17 17 16 16 16 16 16 15 15 15 15 15 14 14 14 14
24 23 23 24 25 25 25 25 26 26 26 25 25 24 25 24 24 23 23 22 21 21 20 19 18 18 17 17 16 16 16 16 16 16 15 15 15 15 14 14 14 14 14 14
23 22 22 23 24 24 24 25 25 25 25 25 24 24 24 24 23 23 22 21 20 20 19 18 18 17 17 16 16 16 16 16 15 15 15 15 15 14 14 14 14 14 14 14
22 21 21 22 22 21 24 25 25 24 24 25 24 24 24 23 22 21 21 20 20 19 18 17 17 16 16 16 16 15 15 15 15 15 15 15 14 14 14 14 14 13 13 13
22 21 21 21 21 22 23 24 24 23 23 24 23 23 23 22 22 20 20 19 19 18 17 17 16 16 16 15 15 15 15 15 15 15 15 15 14 14 13 13 13 13 13 13
23 21 21 21 20 20 22 23 24 23 21 22 22 22 22 21 20 20 19 18 18 17 17 16 16 15 15 15 15 14 14 14 14 14 14 14 14 13 13 13 13 13 13 13
21 21 20 20 20 21 22 23 23 21 20 21 21 21 20 20 19 18 18 17 17 16 16 15 15 15 14 14 14 14 14 14 14 14 14 14 13 13 13 13 13 13 13 13
20 20 20 20 19 20 22 22 21 19 20 20 20 20 19 18 18 17 17 16 16 15 15 15 15 14 14 14 14 14 13 14 14 13 13 13 13 13 13 13 13 13 12 12
20 20 20 19 19 20 20 20 19 19 19 19 19 19 18 18 17 17 16 16 15 15 14 14 14 14 13 13 13 13 13 13 13 13 13 13 13 13 13 13 13 12 12 12
20 20 20 19 19 19 19 18 19 19 18 18 18 18 18 17 17 16 15 15 14 14 14 13 13 13 13 13 13 13 13 13 13 12 12 12 12 13 13 13 12 12 12 12
19 19 19 18 18 19 19 18 18 18 18 17 17 17 17 16 16 16 15 14 14 13 13 13 13 12 12 12 12 12 13 12 12 12 12 12 12 12 12 13 12 12 13 13
18 18 18 17 18 18 18 17 17 17 17 17 17 16 16 16 15 15 14 14 13 13 13 12 12 12 12 12 12 12 12 12 12 12 12 12 12 12 12 12 12 12 12 12

GEFSCGP_850_meantemp_354.txt.gz
Temperature
23 20 20 20 21 22 23 23 22 23 25 24 24 24 24 25 25 24 23 23 23 23 23 23 23 23 22 22 21 21 21 20 20 19 19 19 18 18 18 18 18 18 17 17
21 20 21 22 23 23 23 22 22 23 25 25 24 24 24 24 24 24 23 22 22 22 22 22 23 22 22 22 21 21 21 20 20 20 19 19 18 18 18 17 17 17 17 17
20 21 23 23 23 23 23 22 23 23 24 24 24 23 22 23 23 23 23 23 22 22 22 22 22 22 22 21 21 21 21 20 20 19 19 18 18 18 17 17 17 17 17 17
21 22 23 23 23 23 22 24 24 24 23 21 23 21 21 21 22 21 22 22 21 21 22 22 22 21 21 21 21 20 20 20 20 19 19 18 18 17 17 17 17 17 17 17
21 23 23 23 24 24 23 24 24 24 22 21 21 21 20 21 21 21 21 21 21 21 21 21 21 21 21 21 20 20 20 19 19 19 19 18 18 17 17 17 17 17 17 16
22 23 24 24 25 25 24 23 22 20 19 20 21 21 20 19 20 21 21 21 21 21 21 21 21 20 20 20 20 20 20 19 19 18 18 18 18 17 17 17 17 17 16 16
22 23 24 25 24 24 23 20 19 19 18 19 20 20 19 20 21 21 20 20 20 20 20 20 20 20 20 20 20 19 19 19 19 18 18 18 17 17 17 17 16 16 16 16
20 21 23 24 24 22 22 20 19 19 19 19 20 20 20 20 21 21 21 21 20 20 20 20 20 20 20 19 19 19 19 19 18 18 18 17 17 17 16 16 16 16 16 16
20 21 24 25 25 23 22 20 19 18 19 19 19 20 20 20 20 20 20 20 20 20 20 20 20 20 19 19 19 19 19 18 18 18 17 17 17 16 16 16 16 16 16 15
21 21 23 24 24 23 22 20 18 18 18 19 19 20 19 19 19 19 19 19 19 19 19 20 20 19 19 19 19 19 19 18 18 17 17 17 17 16 16 16 16 15 15 15
20 20 21 22 23 22 22 21 19 17 17 18 18 18 20 19 19 19 18 19 19 19 19 19 19 19 19 19 18 18 18 18 18 17 17 17 16 16 16 16 15 15 15 15
20 18 18 20 22 23 22 21 18 18 18 17 17 18 20 18 19 19 19 19 19 19 19 19 19 19 18 18 18 18 18 18 17 17 17 17 16 16 16 15 15 15 15 15
20 17 18 19 20 21 21 21 19 17 17 17 17 18 19 18 18 19 19 18 18 18 18 18 18 18 18 18 18 17 17 17 17 17 16 16 16 16 15 15 15 15 15 14
20 16 17 18 18 19 20 21 20 18 17 17 18 18 18 17 17 17 18 18 18 18 18 18 18 18 18 17 17 17 17 17 17 16 16 16 16 15 15 15 15 14 14 14
18 17 18 18 20 20 21 21 21 20 18 18 18 18 17 17 17 17 18 18 17 17 17 17 17 17 17 17 17 17 16 16 16 16 16 16 15 15 15 15 14 14 14 14
16 17 18 18 20 20 20 20 20 20 20 19 18 18 18 18 18 18 17 17 16 16 16 17 17 16 16 16 16 16 16 16 16 16 15 15 15 15 14 14 14 14 14 14
15 16 16 16 18 19 18 19 19 19 19 18 18 17 17 17 17 17 17 17 17 16 16 16 16 16 16 16 16 16 16 16 15 15 15 15 15 14 14 14 14 14 14 14
15 14 14 15 17 17 17 18 19 19 18 18 17 17 17 17 17 17 18 17 17 16 16 16 16 16 16 16 16 16 15 15 15 15 15 15 14 14 14 14 14 14 13 13
15 15 14 14 15 16 18 18 18 18 17 17 17 16 16 17 17 16 17 17 17 17 16 16 16 16 15 15 15 15 15 15 15 15 14 14 14 14 14 14 13 13 13 13
15 14 14 14 15 15 16 18 19 17 16 17 16 16 16 16 14 15 16 16 16 16 16 16 16 15 15 15 15 15 14 14 14 14 14 14 14 14 14 14 13 13 13 13
15 14 14 14 14 15 16 18 18 16 16 17 17 17 16 15 15 16 16 16 16 16 16 15 15 15 15 14 14 14 14 14 14 14 14 14 14 14 14 13 13 13 13 13
14 13 13 13 14 14 16 17 16 15 16 17 17 17 17 16 16 16 16 16 15 15 15 15 15 14 14 14 14 14 14 14 14 14 14 13 13 13 13 13 13 13 13 12
13 13 12 13 13 14 16 16 17 17 16 16 17 17 17 16 15 15 15 15 15 15 15 14 14 14 13 13 13 13 13 13 13 13 13 13 13 13 13 13 13 13 12 12
13 13 12 12 13 14 15 16 16 16 16 16 17 16 16 15 15 15 15 15 14 14 14 14 13 13 13 13 13 13 13 13 13 13 13 13 13 13 12 12 12 12 12 12
12 13 12 12 13 14 15 16 16 16 16 16 16 16 15 15 14 14 14 14 14 14 13 13 13 13 12 12 12 12 12 12 12 12 12 12 12 12 12 12 12 12 12 12
12 12 12 12 13 12 14 15 15 15 15 15 15 15 15 15 14 14 13 13 13 13 13 13 13 12 12 12 12 12 12 12 12 12 12 12 12 12 12 12 12 12 12 12